Regional Weather Roundup
Issued by NWS Burlington, VT

Home | Current Version | Previous Version | Text Only | Print | Product List | Glossary On
Versions: 1 2 3 4 5 6 7 8 9 10 11 12 13 14 15 16 17 18 19 20 21 22 23 24 25 26 27 28 29 30 31 32 33 34 35 36 37 38 39 40 41 42 43 44 45 46 47 48 49 50
000
ASUS41 KBTV 271530
RWRBTV
VERMONT REGIONAL WEATHER ROUNDUP
NATIONAL WEATHER SERVICE BURLINGTON VT
1100 AM EDT FRI MAR 27 2015

NOTE: "FAIR" INDICATES FEW OR NO CLOUDS BELOW 12,000 FEET WITH NO
SIGNIFICANT WEATHER AND/OR OBSTRUCTIONS TO VISIBILITY.

* THESE REPORTS ARE NOT UNDER NWS QUALITY CONTROL AND/OR DO NOT
  REPORT WEATHER SUCH AS PRECIPITATION AND FOG.

VTZ001>019-271600-
_____VERMONT_____


CITY           SKY/WX    TMP DP  RH WIND       PRES   REMARKS
BURLINGTON     LGT SNOW  36  32  87 CALM      29.74S FOG
MONTPELIER     CLOUDY    34  32  92 CALM      29.74S
MORRISVILLE    CLOUDY    36  32  85 CALM      29.72F
ST. JOHNSBURY*   N/A     38  31  76 MISG      29.69F
LYNDONVILLE*   FLURRIES  36  30  79 CALM      29.71
MIDDLEBURY*    CLOUDY    38  38 100 CALM      29.72F
RUTLAND*       CLOUDY    36  34  93 CALM      29.72F
SPRINGFIELD    CLOUDY    37  34  89 CALM      29.72F
HIGHGATE*      LGT SNOW  32  32  99 N8        29.76S
NEWPORT*       MIX PCPN  33  31  92 CALM      29.72F
BENNINGTON     CLOUDY    35  33  92 CALM      29.73S FOG
GALLUP MILLS*    N/A     36 N/A N/A MISG        N/A
MT. MANSFIELD*   N/A     28 N/A N/A CALM        N/A

_____LAKE CHAMPLAIN_____


CITY           SKY/WX    TMP DP  RH WIND       PRES   REMARKS
BURTON ISLAND*   N/A     34  32  93 NW1         N/A
COLCHESTER RF*   N/A     32  34 100 E5          N/A
DIAMOND ISL*     N/A     34  34 100 W1          N/A

$$

NYZ007-026>031-035-052-083-271600-
_____NORTHERN NEW YORK_____


CITY           SKY/WX    TMP DP  RH WIND       PRES   REMARKS
PLATTSBURGH    SNOW      32  32 100 CALM      29.76S VSB 1/2
SARANAC LAKE   FLURRIES  33  29  85 W5        29.69S
MASSENA        CLOUDY    30  29  96 N12       29.81S
OGDENSBURG*    CLOUDY    30  28  93 N12       29.81R
POTSDAM*       CLOUDY    32  30  93 N9        29.79R
STARK FALLS*     N/A     32 N/A N/A N3          N/A
WATERTOWN      CLOUDY    36  31  82 W10       29.80R
FT DRUM        LGT SNOW  32  32 100 VRB6      29.77R VSB 3/4
ALBANY         CLOUDY    40  30  67 W8        29.76S
GLENS FALLS    CLOUDY    37  35  92 CALM      29.74F FOG

$$
NHZ002-005-011-271600-
_____NEW HAMPSHIRE_____


CITY           SKY/WX    TMP DP  RH WIND       PRES   REMARKS
LEBANON        CLOUDY    38  34  85 CALM      29.72S
KEENE          CLOUDY    39  34  81 N7        29.72F
MT WASHINGTON  FOG       16  16 100 NW29        N/A  VSB 1/16WCI  -4
PLYMOUTH       CLOUDY    40  36  85 W3        29.70F
WHITEFIELD     CLOUDY    37  32  82 CALM      29.70S

$$

_____REGIONAL QUEBEC LOCATIONS_____


CITY           SKY/WX    TMP DP  RH WIND       PRES   REMARKS
MONTREAL       LGT SNOW  30  27  86 NE13      29.80R
QUEBEC CITY    MOSUNNY   34  19  55 W7        29.74F
SHERBROOKE     LGT SNOW  34  30  86 NW7       29.72F

_____REGIONAL ONTARIO LOCATIONS_____


CITY           SKY/WX    TMP DP  RH WIND       PRES   REMARKS
OTTAWA         CLOUDY    25  16  68 NW15      29.83S WCI  12

______KEY______
VSB  - VISIBILITY IN MILES
WCI  - WIND CHILL INDEX
HX   - HEAT INDEX
$$



USA.gov is the U.S. government's official web portal to all federal, state and local government web resources and services.